| time (UTC) | temp F | wind direction | speed MPH | gust MPH | rain 1hr in | rain 24hr in | rain mn in | humidity % | barometer mb |
| 20260506003058 | 67 | 341 | 0.0 | 2.0 | 0.00 | 0.27 | 0.00 | 42 | 1009.7 |
| 20260506001559 | 68 | 315 | 4.0 | 8.0 | 0.00 | 0.27 | 0.00 | 42 | 1009.6 |
| 20260506000057 | 69 | 343 | 5.0 | 9.0 | 0.00 | 0.27 | 0.00 | 42 | 1009.7 |
| 20260505234607 | 68 | 86 | 0.0 | 7.0 | 0.00 | 0.27 | 0.00 | 41 | 1009.8 |
| 20260505233052 | 67 | 311 | 0.0 | 8.0 | 0.00 | 0.27 | 0.00 | 42 | 1009.9 |
| 20260505231550 | 68 | 245 | 0.0 | 7.0 | 0.00 | 0.27 | 0.00 | 44 | 1010.0 |
| 20260505230049 | 68 | 304 | 6.0 | 12.0 | 0.00 | 0.27 | 0.00 | 44 | 1010.1 |
| 20260505224548 | 67 | 41 | 0.0 | 5.0 | 0.00 | 0.27 | 0.00 | 41 | 1010.4 |
| 20260505223046 | 67 | 302 | 0.0 | 11.0 | 0.00 | 0.27 | 0.00 | 43 | 1010.6 |
| 20260505221544 | 66 | 101 | 5.0 | 10.0 | 0.00 | 0.27 | 0.00 | 43 | 1010.8 |
| 20260505220042 | 65 | 335 | 0.0 | 2.0 | 0.00 | 0.27 | 0.00 | 43 | 1011.1 |
| 20260505214600 | 65 | 356 | 0.0 | 8.0 | 0.00 | 0.27 | 0.00 | 48 | 1011.2 |
| 20260505213042 | 63 | 224 | 0.0 | 11.0 | 0.00 | 0.27 | 0.00 | 53 | 1011.4 |
| 20260505211535 | 64 | 224 | 0.0 | 0.0 | 0.00 | 0.27 | 0.00 | 53 | 1011.4 |
| 20260505210033 | 61 | 132 | 0.0 | 4.0 | 0.00 | 0.27 | 0.00 | 57 | 1011.6 |
| 20260505204532 | 61 | 314 | 2.0 | 6.0 | 0.00 | 0.30 | 0.00 | 57 | 1011.7 |
| 20260505203037 | 62 | 309 | 0.0 | 1.0 | 0.00 | 0.30 | 0.00 | 56 | 1011.7 |
| 20260505201536 | 63 | 85 | 0.0 | 6.0 | 0.00 | 0.30 | 0.00 | 54 | 1011.8 |
| 20260505200028 | 62 | 136 | 0.0 | 4.0 | 0.00 | 0.30 | 0.00 | 56 | 1011.9 |
| 20260505194526 | 61 | 70 | 3.0 | 6.0 | 0.00 | 0.30 | 0.00 | 61 | 1012.1 |
| 20260505193023 | 58 | 26 | 1.0 | 5.0 | 0.00 | 0.30 | 0.00 | 62 | 1012.2 |
| 20260505191522 | 58 | 66 | 0.0 | 6.0 | 0.00 | 0.30 | 0.00 | 65 | 1012.2 |
| 20260505190022 | 58 | 108 | 0.0 | 4.0 | 0.00 | 0.30 | 0.00 | 66 | 1012.2 |
| 20260505184517 | 56 | 59 | 1.0 | 6.0 | 0.00 | 0.30 | 0.00 | 66 | 1012.2 |
| 20260505183019 | 56 | 27 | 2.0 | 5.0 | 0.00 | 0.30 | 0.00 | 66 | 1012.2 |
| 20260505181514 | 54 | 314 | 0.0 | 6.0 | 0.00 | 0.30 | 0.00 | 72 | 1012.4 |
| 20260505180011 | 53 | 46 | 3.0 | 7.0 | 0.00 | 0.30 | 0.00 | 72 | 1012.2 |
| 20260505174513 | 53 | 43 | 2.0 | 6.0 | 0.00 | 0.30 | 0.00 | 74 | 1012.1 |
| 20260505173011 | 52 | 23 | 3.0 | 9.0 | 0.00 | 0.30 | 0.00 | 73 | 1011.9 |
| 20260505171504 | 52 | 331 | 4.0 | 10.0 | 0.00 | 0.30 | 0.00 | 75 | 1011.8 |
| 20260505170004 | 52 | 6 | 4.0 | 10.0 | 0.00 | 0.30 | 0.00 | 76 | 1011.8 |
| 20260505164501 | 51 | 330 | 2.0 | 7.0 | 0.00 | 0.31 | 0.00 | 79 | 1011.7 |
| 20260505163059 | 50 | 314 | 2.0 | 8.0 | 0.00 | 0.31 | 0.00 | 83 | 1011.6 |
| 20260505161610 | 49 | 356 | 0.0 | 6.0 | 0.00 | 0.31 | 0.00 | 82 | 1011.7 |
| 20260505153047 | 47 | 347 | 4.0 | 7.0 | 0.00 | 0.31 | 0.00 | 86 | 1011.3 |
| 20260505151543 | 46 | 307 | 1.0 | 5.0 | 0.00 | 0.31 | 0.00 | 87 | 1011.1 |
| 20260505124532 | 43 | 333 | 1.0 | 8.0 | 0.00 | 0.31 | 0.00 | 88 | 1009.7 |
| 20260505123025 | 43 | 347 | 3.0 | 9.0 | 0.00 | 0.31 | 0.00 | 89 | 1009.5 |
| 20260505121524 | 43 | 335 | 4.0 | 8.0 | 0.00 | 0.31 | 0.00 | 90 | 1009.6 |
| 20260505120028 | 43 | 337 | 2.0 | 6.0 | 0.00 | 0.31 | 0.00 | 90 | 1009.6 |
| 20260505114523 | 42 | 344 | 2.0 | 6.0 | 0.00 | 0.31 | 0.00 | 90 | 1009.4 |
| 20260505113024 | 43 | 24 | 3.0 | 8.0 | 0.00 | 0.31 | 0.00 | 89 | 1009.4 |
| 20260505111521 | 43 | 323 | 3.0 | 9.0 | 0.00 | 0.31 | 0.00 | 89 | 1009.4 |
| 20260505101529 | 43 | 313 | 5.0 | 8.0 | 0.00 | 0.31 | 0.00 | 89 | 1009.7 |
| 20260505100114 | 42 | 330 | 0.0 | 0.0 | 0.00 | 0.31 | 0.00 | 90 | 1009.8 |
| 20260505094513 | 41 | 330 | 0.0 | 2.0 | 0.00 | 0.31 | 0.00 | 90 | 1009.9 |
| 20260505093022 | 41 | 335 | 4.0 | 6.0 | 0.00 | 0.31 | 0.00 | 90 | 1009.8 |
| 20260505091511 | 41 | 356 | 1.0 | 5.0 | 0.00 | 0.31 | 0.00 | 90 | 1009.8 |
| 20260505090011 | 42 | 354 | 1.0 | 7.0 | 0.00 | 0.31 | 0.00 | 89 | 1009.9 |
| 20260505084509 | 42 | 30 | 2.0 | 9.0 | 0.00 | 0.31 | 0.00 | 90 | 1009.8 |
| 20260505083011 | 42 | 333 | 7.0 | 13.0 | 0.00 | 0.31 | 0.00 | 90 | 1009.9 |
| 20260505081508 | 42 | 330 | 7.0 | 11.0 | 0.00 | 0.31 | 0.00 | 92 | 1010.1 |
| 20260505080001 | 42 | 293 | 4.0 | 9.0 | 0.00 | 0.31 | 0.00 | 94 | 1010.3 |
| 20260505074501 | 42 | 316 | 0.0 | 5.0 | 0.00 | 0.31 | 0.00 | 94 | 1010.2 |
| 20260505073100 | 42 | 262 | 3.0 | 5.0 | 0.00 | 0.31 | 0.00 | 94 | 1010.2 |
| 20260505071605 | 42 | 314 | 3.0 | 7.0 | 0.00 | 0.31 | 0.00 | 94 | 1010.4 |
| 20260505070056 | 42 | 262 | 3.0 | 9.0 | 0.00 | 0.31 | 0.00 | 94 | 1010.1 |
| 20260505064553 | 42 | 325 | 6.0 | 10.0 | 0.00 | 0.31 | 0.31 | 94 | 1009.9 |
| 20260505063119 | 42 | 318 | 2.0 | 7.0 | 0.00 | 0.31 | 0.31 | 94 | 1009.4 |
| 20260505061618 | 42 | 341 | 2.0 | 6.0 | 0.00 | 0.31 | 0.31 | 94 | 1008.7 |
| 20260505060100 | 42 | 342 | 3.0 | 8.0 | 0.00 | 0.31 | 0.31 | 94 | 1009.0 |
| 20260505054549 | 42 | 314 | 6.0 | 17.0 | 0.00 | 0.31 | 0.31 | 94 | 1009.1 |
| 20260505053046 | 42 | 297 | 9.0 | 17.0 | 0.01 | 0.31 | 0.31 | 94 | 1009.4 |
| 20260505051607 | 43 | 324 | 8.0 | 15.0 | 0.01 | 0.31 | 0.31 | 94 | 1009.1 |
| 20260505041548 | 44 | 39 | 4.0 | 10.0 | 0.02 | 0.30 | 0.30 | 94 | 1009.0 |
| 20260505040041 | 44 | 298 | 6.0 | 12.0 | 0.03 | 0.30 | 0.30 | 94 | 1008.7 |
| 20260505034540 | 44 | 22 | 4.0 | 13.0 | 0.01 | 0.28 | 0.28 | 94 | 1009.2 |
| 20260505033041 | 44 | 22 | 4.0 | 9.0 | 0.03 | 0.28 | 0.28 | 94 | 1008.6 |
| 20260505031540 | 43 | 345 | 3.0 | 12.0 | 0.03 | 0.28 | 0.28 | 94 | 1008.1 |
| 20260505030138 | 44 | 103 | 2.0 | 9.0 | 0.02 | 0.27 | 0.27 | 94 | 1008.4 |
| 20260505024541 | 44 | 193 | 5.0 | 7.0 | 0.03 | 0.27 | 0.27 | 94 | 1008.3 |
| 20260505023036 | 44 | 19 | 7.0 | 10.0 | 0.04 | 0.25 | 0.25 | 94 | 1008.7 |
| 20260505021536 | 43 | 49 | 2.0 | 8.0 | 0.14 | 0.25 | 0.25 | 93 | 1008.1 |
| 20260505020035 | 43 | 348 | 6.0 | 9.0 | 0.17 | 0.25 | 0.25 | 93 | 1008.1 |
| 20260505014532 | 44 | 279 | 9.0 | 13.0 | 0.17 | 0.24 | 0.24 | 93 | 1008.1 |
| 20260505013032 | 45 | 262 | 8.0 | 11.0 | 0.16 | 0.20 | 0.20 | 93 | 1008.9 |
| 20260505011533 | 45 | 147 | 5.0 | 12.0 | 0.07 | 0.11 | 0.11 | 93 | 1009.7 |
| 20260505010030 | 44 | 221 | 13.0 | 23.0 | 0.04 | 0.08 | 0.08 | 91 | 1008.3 |
| 20260505004526 | 45 | 216 | 19.0 | 27.0 | 0.03 | 0.07 | 0.07 | 88 | 1007.9 |